Location: Peterborough
(44.3091°N, 78.3197°W)
Time: 17:54:40
(UTC-04:00)

Transit 4A - Pass Details

Date: 26 March 2023
Orbit: 864 x 980 km, 66.8° (Epoch: 04 June)

Event Time Altitude Azimuth Distance (km) Brightness Sun altitude
Rises 05:26:54 0° 147° (SSE) 3,430 11.0 -18.0°
Reaches altitude 10° 05:32:20 10° 105° (ESE) 2,512 11.0 -17.1°
Maximum altitude 05:32:51 10° 100° (E) 2,506 11.1 -17.0°
Drops below altitude 10° 05:33:21 10° 95° (E) 2,517 11.2 -17.0°
Sets 05:38:50 0° 53° (NE) 3,489 12.4 -16.0°
